INTELSAT 33E DEB, 62004

Orbit data source: Space-Track

INTELSAT 33E DEB, 62004 is space debris in GEO originally from a launch on Wed, 24 Aug 2016 UTC launched from the French Guiana (FRGUI). Debris objects in space refer to the collection of defunct objects orbiting the Earth. Examples of debris include non-operational satellites, rocket bodies, and fragments generated from explosions, collisions, or faulty payload assembly.

Not visible in the next 10 days
Identifier
62004, 2016-053W
Orbit
GEO
Country
Flag of USUS / ITSO
Related business
Manufacturer
Boeing/ES
Mission
Spacecraft
Bus & Motor
Unknown
Mass
Unknown
Launch date (UTC)
2016-08-24 (10 years ago)
Launch vehicle
Unknown
Launch site
French Guiana (FRGUI)
Object type
Payload
Rocket body
Debris
Shape & HBR
Unknown shape, 1.1 m
Radar Cross Section
RCS unknown

Expand to show TLE details & history
Last TLE update: 13 hours ago

TLE from 13 hours ago
0 INTELSAT 33E DEB
1 62004U 16053W   26166.15949883 -.00000002  00000-0  00000+0 0  9997
2 62004   2.5186 114.7371 0211231 278.1721  78.8944  1.02631316  6197
Epoch: 2026-06-15T03:49Z
TLE epoch observation values (Epoch: 2026-06-15T03:49:40.698Z)
Latitude
-0°
Longitude
153.32089°
Altitude
34,982.106 km
Speed
3.11 km/s
True Right ascension
07h 36m 45s
True Declination
0° 00' 00"
Sunlit
Object was in daylight at epoch
Visualization orbit readout
Latitude
Unknown
Longitude
Unknown
Altitude
Unknown
Speed
Unknown
Apparent Right ascension
Unknown
Apparent Declination
Unknown
Sunlit
N/A
Visualization observer readout
Local Sidereal Time
03:53:21
Azimuth
Unknown
Elevation
Unknown
Doppler factor
Unknown
Orbital elements
Apogee altitude
36,015.891 km
Perigee altitude
34,261.953 km
Semi-major axis
41,517.059 km
Eccentricity
0.02112
Inclination
2.5186°
RAAN
114.7371°
Arg. of periapsis
278.1721°
True anomaly
81.28105°
Mean anomaly
78.8944°
Eccentric anomaly
80.08659°
Mean motion
0.25657 °/min
Orbital period
1,403.13 mins
BSTAR
0
Loading maneuver chart data...
Computing Atmospheric mass density...
Loading historical data...
Loading historical data...
Loading historical data...
Loading historical data...
Loading historical data...
Loading historical data...
Loading historical data...

Documentation

Showing up to 5 results
|